Regional Weather Roundup
Issued by NWS

Home | Current Version | Previous Version | Text Only | Print | Product List | Glossary Off
Versions: 1 2 3 4 5 6 7 8 9 10 11 12 13 14 15 16 17 18 19 20 21 22 23 24 25 26 27 28 29 30 31 32 33 34 35 36 37 38 39 40 41 42 43 44 45 46 47 48 49 50

000
ASUS43 KLMK 110402
RWRKY
KENTUCKY REGIONAL WEATHER ROUNDUP
NATIONAL WEATHER SERVICE LOUISVILLE KY
1200 AM EDT FRI JUL 11 2014

NOTE "FAIR" INDICATES FEW OR NO CLOUDS BELOW 12,000 FEET
WITH NO SIGNIFICANT WEATHER AND/OR OBSTRUCTIONS TO VISIBILITY.

KYZ001>023-026-027-061>063-070>075-110500-
WESTERN AND SOUTH CENTRAL KENTUCKY

CITY           SKY/WX    TMP DP  RH WIND       PRES   REMARKS
PADUCAH        PTCLDY    71  66  84 CALM      30.12R
HENDERSON      CLEAR     66  63  88 CALM      30.13R
OWENSBORO      CLEAR     74  59  59 CALM      30.14R
HOPKINSVILLE   MOCLDY    72  66  80 N2        30.13R
BOWLING GREEN  CLEAR     73  62  68 CALM      30.14R
GLASGOW        NOT AVBL
$$

KYZ024-025-028>034-038-045-046-053-110500-
NORTH CENTRAL KENTUCKY

CITY           SKY/WX    TMP DP  RH WIND       PRES   REMARKS
LOUISVILLE/SDF CLEAR     75  59  57 NE7       30.14R
LOUISVILLE/LOU CLEAR     73  58  59 CALM      30.15R
FORT KNOX      CLEAR     67  59  73 N5        30.14R
$$

KYZ035>037-039>044-047>052-055>060-089>105-110500-
NORTHEAST KENTUCKY

CITY           SKY/WX    TMP DP  RH WIND       PRES   REMARKS
LEXINGTON      CLEAR     69  57  65 NE5       30.16R
COVINGTON      PTCLDY    72  54  53 NE7       30.16S
FRANKFORT      CLEAR     66  58  75 N3        30.14S
$$

KYZ054-064>069-076>088-106>120-110500-
SOUTHEAST KENTUCKY

CITY           SKY/WX    TMP DP  RH WIND       PRES   REMARKS
JACKSON        CLEAR     72  60  66 CALM      30.16S
LONDON         PTCLDY    73  62  68 CALM      30.16R
SOMERSET       CLEAR     70  61  73 CALM      30.15R
MIDDLESBORO    PTCLDY    67  63  86 CALM      30.16R
MONTICELLO     PTCLDY    65  64  96 CALM      30.16R
$$



USA.gov is the U.S. government's official web portal to all federal, state and local government web resources and services.